,,Stat6,,Stat2,,Stat8,,Stat9,,Stat10,,Wind1,,Wind1,
time,status,PA1M_AVG,status,PR1M_SUM,status,RH1M_AVG,status,SR1M_AVG,status,TA1M_AVG,status,W1dAve1m,status,W1sAve1m,
2008-08-29, 00:00:00,VALID,918.199,VALID,0,VALID,100,VALID,-0.0169808,VALID,19.1959,VALID,116,VALID,0.306504,
2008-08-29, 00:01:00,VALID,918.183,VALID,0,VALID,100,VALID,0,VALID,19.1825,VALID,122,VALID,0.4125,
2008-08-29, 00:02:00,VALID,918.197,VALID,0,VALID,100,VALID,0,VALID,19.1693,VALID,130,VALID,1.23889,
2008-08-29, 00:03:00,VALID,918.178,VALID,0,VALID,100,VALID,0.0339617,VALID,19.1693,VALID,123,VALID,1.36254,
2008-08-29, 00:04:00,VALID,918.181,VALID,0,VALID,100,VALID,0.0169808,VALID,19.166,VALID,99,VALID,0.527798,
2008-08-29, 00:05:00,VALID,918.173,VALID,0,VALID,100,VALID,0,VALID,19.1595,VALID,112,VALID,0.780342,
2008-08-29, 00:06:00,VALID,918.165,VALID,0,VALID,100,VALID,0,VALID,19.1563,VALID,118,VALID,0.815799,
2008-08-29, 00:07:00,VALID,918.149,VALID,0,VALID,100,VALID,0,VALID,19.1336,VALID,121,VALID,1.26381,
2008-08-29, 00:08:00,VALID,918.156,VALID,0,VALID,100,VALID,0,VALID,19.1303,VALID,110,VALID,0.897892,
2008-08-29, 00:09:00,VALID,918.141,VALID,0,VALID,100,VALID,0,VALID,19.1236,VALID,124,VALID,1.2959,
2008-08-29, 00:10:00,VALID,918.146,VALID,0.2,VALID,100,VALID,0.0169808,VALID,19.1398,VALID,124,VALID,1.00327,
2008-08-29, 00:11:00,VALID,918.136,VALID,0,VALID,100,VALID,0.0169808,VALID,19.1498,VALID,102,VALID,0.215625,
2008-08-29, 00:12:00,VALID,918.138,VALID,0,VALID,100,VALID,0,VALID,19.1563,VALID,110,VALID,0.291016,
2008-08-29, 00:13:01,VALID,918.136,VALID,0,VALID,100,VALID,0,VALID,19.1463,VALID,126,VALID,0.694931,
2008-08-29, 00:14:01,VALID,918.135,VALID,0,VALID,100,VALID,0,VALID,19.1431,VALID,117,VALID,0.077567,
2008-08-29, 00:15:00,VALID,918.122,VALID,0,VALID,100,VALID,0,VALID,19.1463,VALID,122,VALID,0.000390625,
2008-08-29, 00:16:00,VALID,918.126,VALID,0,VALID,100,VALID,0,VALID,19.1336,VALID,121,VALID,0.0288318,
2008-08-29, 00:17:00,VALID,918.115,VALID,0,VALID,100,VALID,0,VALID,19.1401,VALID,124,VALID,0.326982,
2008-08-29, 00:18:00,VALID,918.111,VALID,0,VALID,100,VALID,0,VALID,19.1463,VALID,121,VALID,0,
2008-08-29, 00:19:00,VALID,918.101,VALID,0,VALID,100,VALID,0,VALID,19.1498,VALID,131,VALID,0,
2008-08-29, 00:20:00,VALID,918.081,VALID,0,VALID,100,VALID,0,VALID,19.1271,VALID,126,VALID,0.144903,
2008-08-29, 00:21:00,VALID,918.066,VALID,0,VALID,100,VALID,-0.0679233,VALID,19.1183,VALID,127,VALID,0,
2008-08-29, 00:22:00,VALID,918.05,VALID,0,VALID,100,VALID,-0.118866,VALID,19.1223,VALID,127,VALID,0,
2008-08-29, 00:23:01,VALID,918.033,VALID,0,VALID,100,VALID,-0.0849042,VALID,19.1191,VALID,127,VALID,0,
2008-08-29, 00:24:01,VALID,918.009,VALID,0,VALID,100,VALID,-0.118866,VALID,19.1123,VALID,127,VALID,0,
2008-08-29, 00:25:00,VALID,917.99,VALID,0,VALID,100,VALID,-0.101885,VALID,19.1056,VALID,113,VALID,0,
2008-08-29, 00:26:00,VALID,917.98,VALID,0,VALID,100,VALID,-0.135847,VALID,19.0994,VALID,101,VALID,0,
2008-08-29, 00:27:01,VALID,917.96,VALID,0,VALID,100,VALID,-0.101885,VALID,19.0764,VALID,100,VALID,0,
2008-08-29, 00:28:00,VALID,917.942,VALID,0,VALID,100,VALID,-0.101885,VALID,19.0699,VALID,100,VALID,0,
2008-08-29, 00:29:00,VALID,917.938,VALID,0,VALID,100,VALID,-0.101885,VALID,19.0604,VALID,100,VALID,0,
2008-08-29, 00:30:00,VALID,917.923,VALID,0,VALID,100,VALID,-0.101885,VALID,19.0507,VALID,96,VALID,0,
2008-08-29, 00:31:01,VALID,917.907,VALID,0,VALID,100,VALID,-0.118866,VALID,19.0447,VALID,91,VALID,0,
2008-08-29, 00:32:01,VALID,917.909,VALID,0,VALID,100,VALID,-0.0849042,VALID,19.0345,VALID,82,VALID,0,
2008-08-29, 00:33:00,VALID,917.89,VALID,0,VALID,100,VALID,-0.118866,VALID,19.025,VALID,83,VALID,0,
2008-08-29, 00:34:00,VALID,917.875,VALID,0.2,VALID,100,VALID,-0.118866,VALID,19.0215,VALID,89,VALID,0.00284091,
2008-08-29, 00:35:00,VALID,917.855,VALID,0,VALID,100,VALID,-0.101885,VALID,19.0317,VALID,97,VALID,0,
2008-08-29, 00:36:00,VALID,917.841,VALID,0,VALID,100,VALID,-0.0169808,VALID,19.0557,VALID,101,VALID,0,
2008-08-29, 00:37:00,VALID,917.823,VALID,0,VALID,100,VALID,-0.0169808,VALID,19.0782,VALID,100,VALID,0,
2008-08-29, 00:38:01,VALID,917.82,VALID,0,VALID,100,VALID,0,VALID,19.1076,VALID,107,VALID,0,
2008-08-29, 00:39:00,VALID,917.803,VALID,0,VALID,100,VALID,-0.0169808,VALID,19.1176,VALID,120,VALID,0,
2008-08-29, 00:40:00,VALID,917.779,VALID,0,VALID,100,VALID,-0.0169808,VALID,19.1306,VALID,132,VALID,0,
2008-08-29, 00:41:00,VALID,917.764,VALID,0,VALID,100,VALID,-0.0169808,VALID,19.1398,VALID,137,VALID,0.361607,
2008-08-29, 00:42:00,VALID,917.748,VALID,0,VALID,100,VALID,0,VALID,19.1565,VALID,138,VALID,0.450648,
2008-08-29, 00:43:01,VALID,917.74,VALID,0,VALID,100,VALID,-0.0509425,VALID,19.1368,VALID,145,VALID,0.0619792,
2008-08-29, 00:44:00,VALID,917.712,VALID,0,VALID,100,VALID,-0.0509425,VALID,19.1438,VALID,148,VALID,0,
2008-08-29, 00:45:00,VALID,917.689,VALID,0,VALID,100,VALID,-0.0339617,VALID,19.1273,VALID,154,VALID,0.0868459,
2008-08-29, 00:46:00,VALID,917.665,VALID,0,VALID,100,VALID,0,VALID,19.1171,VALID,132,VALID,0.0152699,
2008-08-29, 00:47:00,VALID,917.647,VALID,0,VALID,100,VALID,0.0169808,VALID,19.1011,VALID,117,VALID,0.317383,
2008-08-29, 00:48:00,VALID,917.61,VALID,0,VALID,100,VALID,0.0169808,VALID,19.075,VALID,157,VALID,0.723323,
2008-08-29, 00:49:00,VALID,917.583,VALID,0,VALID,100,VALID,-0.0169808,VALID,19.0625,VALID,143,VALID,0.93022,
2008-08-29, 00:50:01,VALID,917.568,VALID,0,VALID,100,VALID,0,VALID,19.0458,VALID,145,VALID,0.705729,
2008-08-29, 00:51:00,VALID,917.542,VALID,0,VALID,100,VALID,-0.101885,VALID,19.0307,VALID,148,VALID,0.736192,
2008-08-29, 00:52:00,VALID,917.521,VALID,0,VALID,100,VALID,-0.118866,VALID,19.0148,VALID,146,VALID,1.03404,
2008-08-29, 00:53:00,VALID,917.501,VALID,0,VALID,100,VALID,-0.101885,VALID,18.9953,VALID,143,VALID,0.994368,
2008-08-29, 00:54:01,VALID,917.475,VALID,0,VALID,100,VALID,-0.0849042,VALID,18.9691,VALID,141,VALID,1.22582,
2008-08-29, 00:55:01,VALID,917.455,VALID,0,VALID,100,VALID,-0.101885,VALID,18.9631,VALID,143,VALID,1.0364,
2008-08-29, 00:56:01,VALID,917.431,VALID,0,VALID,100,VALID,-0.118866,VALID,18.9466,VALID,143,VALID,0.676683,
2008-08-29, 00:57:01,VALID,917.41,VALID,0,VALID,100,VALID,-0.0849042,VALID,18.9274,VALID,141,VALID,0.630335,
2008-08-29, 00:58:01,VALID,917.399,VALID,0,VALID,100,VALID,-0.135847,VALID,18.9372,VALID,130,VALID,0.265816,
2008-08-29, 00:59:01,VALID,917.382,VALID,0,VALID,100,VALID,-0.101885,VALID,18.9207,VALID,136,VALID,1.1964,
2008-08-29, 01:00:00,VALID,917.364,VALID,0,VALID,100,VALID,-0.118866,VALID,18.9015,VALID,139,VALID,1.37743,
2008-08-29, 01:01:01,VALID,917.354,VALID,0,VALID,100,VALID,-0.101885,VALID,18.8883,VALID,141,VALID,0.884673,
2008-08-29, 01:02:00,VALID,917.344,VALID,0.2,VALID,100,VALID,-0.118866,VALID,18.8885,VALID,148,VALID,1.42454,
2008-08-29, 01:03:01,VALID,917.345,VALID,0,VALID,100,VALID,-0.0849042,VALID,18.8853,VALID,151,VALID,1.25556,
2008-08-29, 01:04:01,VALID,917.341,VALID,0,VALID,100,VALID,-0.118866,VALID,18.8723,VALID,140,VALID,1.70955,
2008-08-29, 01:05:01,VALID,917.331,VALID,0,VALID,100,VALID,-0.118866,VALID,18.8658,VALID,146,VALID,0.662246,
2008-08-29, 01:06:01,VALID,917.325,VALID,0,VALID,100,VALID,-0.0849042,VALID,18.8723,VALID,150,VALID,1.2686,
2008-08-29, 01:07:01,VALID,917.322,VALID,0,VALID,100,VALID,-0.101885,VALID,18.8623,VALID,144,VALID,1.1064,
2008-08-29, 01:08:01,VALID,917.314,VALID,0,VALID,100,VALID,-0.101885,VALID,18.8528,VALID,150,VALID,1.32273,
2008-08-29, 01:09:00,VALID,917.307,VALID,0,VALID,100,VALID,-0.0679233,VALID,18.8326,VALID,164,VALID,0.656631,
2008-08-29, 01:10:00,VALID,917.309,VALID,0,VALID,100,VALID,-0.101885,VALID,18.8236,VALID,144,VALID,1.46913,
2008-08-29, 01:11:00,VALID,917.294,VALID,0,VALID,100,VALID,-0.101885,VALID,18.8106,VALID,146,VALID,1.54267,
2008-08-29, 01:12:00,VALID,917.297,VALID,0,VALID,100,VALID,-0.101885,VALID,18.7974,VALID,141,VALID,0.792352,
2008-08-29, 01:13:00,VALID,917.293,VALID,0,VALID,100,VALID,-0.0849042,VALID,18.7914,VALID,141,VALID,1.09809,
2008-08-29, 01:14:00,VALID,917.283,VALID,0,VALID,100,VALID,-0.0849042,VALID,18.778,VALID,160,VALID,1.03622,
2008-08-29, 01:15:00,VALID,917.285,VALID,0,VALID,100,VALID,-0.101885,VALID,18.7648,VALID,147,VALID,1.1769,
2008-08-29, 01:16:00,VALID,917.271,VALID,0,VALID,100,VALID,-0.101885,VALID,18.7583,VALID,151,VALID,0.997456,
2008-08-29, 01:17:00,VALID,917.267,VALID,0,VALID,100,VALID,-0.0849042,VALID,18.7585,VALID,148,VALID,0.908203,
2008-08-29, 01:18:00,VALID,917.263,VALID,0,VALID,100,VALID,-0.0849042,VALID,18.7583,VALID,144,VALID,0.628729,
2008-08-29, 01:19:00,VALID,917.268,VALID,0,VALID,100,VALID,-0.0849042,VALID,18.7453,VALID,154,VALID,0.929102,
2008-08-29, 01:20:00,VALID,917.253,VALID,0,VALID,100,VALID,-0.0679233,VALID,18.7453,VALID,154,VALID,1.21337,
2008-08-29, 01:21:00,VALID,917.243,VALID,0,VALID,100,VALID,-0.0169808,VALID,18.7511,VALID,143,VALID,0.831555,
2008-08-29, 01:22:00,VALID,917.222,VALID,0,VALID,100,VALID,0,VALID,18.7441,VALID,139,VALID,0.0515625,
2008-08-29, 01:23:00,VALID,917.211,VALID,0,VALID,100,VALID,0.0169808,VALID,18.7411,VALID,136,VALID,0.830664,
2008-08-29, 01:24:00,VALID,917.184,VALID,0,VALID,100,VALID,0,VALID,18.7381,VALID,129,VALID,1.09208,
2008-08-29, 01:25:00,VALID,917.165,VALID,0,VALID,100,VALID,0,VALID,18.7316,VALID,130,VALID,0.803013,
2008-08-29, 01:26:00,VALID,917.153,VALID,0,VALID,100,VALID,0.0169808,VALID,18.7084,VALID,132,VALID,0.89968,
2008-08-29, 01:27:00,VALID,917.128,VALID,0,VALID,100,VALID,0,VALID,18.7052,VALID,132,VALID,0.951601,
2008-08-29, 01:28:00,VALID,917.125,VALID,0,VALID,100,VALID,0,VALID,18.6955,VALID,133,VALID,1.14121,
2008-08-29, 01:29:00,VALID,917.117,VALID,0,VALID,100,VALID,-0.0169808,VALID,18.6957,VALID,152,VALID,0.852307,
2008-08-29, 01:30:00,VALID,917.099,VALID,0,VALID,100,VALID,0,VALID,18.6887,VALID,142,VALID,1.03782,
2008-08-29, 01:31:00,VALID,917.087,VALID,0,VALID,100,VALID,0,VALID,18.6922,VALID,141,VALID,0.851004,
2008-08-29, 01:32:00,VALID,917.085,VALID,0,VALID,100,VALID,0,VALID,18.6788,VALID,129,VALID,0.983103,
2008-08-29, 01:33:00,VALID,917.083,VALID,0,VALID,100,VALID,0.0169808,VALID,18.6725,VALID,126,VALID,0.769965,
2008-08-29, 01:34:00,VALID,917.084,VALID,0,VALID,100,VALID,0.0169808,VALID,18.6693,VALID,126,VALID,0.732955,
2008-08-29, 01:35:00,VALID,917.089,VALID,0,VALID,100,VALID,0.0169808,VALID,18.6628,VALID,130,VALID,1.04688,
2008-08-29, 01:36:00,VALID,917.077,VALID,0,VALID,100,VALID,-0.0679233,VALID,18.661,VALID,138,VALID,1.17264,
2008-08-29, 01:37:00,VALID,917.066,VALID,0,VALID,100,VALID,-0.101885,VALID,18.6577,VALID,140,VALID,0.721484,
2008-08-29, 01:38:00,VALID,917.065,VALID,0,VALID,100,VALID,-0.118866,VALID,18.6614,VALID,144,VALID,0.569931,
2008-08-29, 01:39:00,VALID,917.056,VALID,0,VALID,100,VALID,-0.101885,VALID,18.6515,VALID,139,VALID,0.861151,
2008-08-29, 01:40:00,VALID,917.044,VALID,0,VALID,100,VALID,-0.101885,VALID,18.648,VALID,138,VALID,1.01776,
2008-08-29, 01:41:00,VALID,917.028,VALID,0,VALID,100,VALID,-0.0849042,VALID,18.6482,VALID,136,VALID,0.881722,
2008-08-29, 01:42:00,VALID,917.025,VALID,0,VALID,100,VALID,-0.0849042,VALID,18.6415,VALID,133,VALID,1.05191,
2008-08-29, 01:43:00,VALID,916.997,VALID,0,VALID,100,VALID,-0.0849042,VALID,18.635,VALID,139,VALID,0.523438,
2008-08-29, 01:44:00,VALID,916.993,VALID,0,VALID,100,VALID,-0.101885,VALID,18.6322,VALID,131,VALID,0.747638,
2008-08-29, 01:45:00,VALID,916.98,VALID,0,VALID,100,VALID,-0.0849042,VALID,18.6253,VALID,132,VALID,1.05804,
2008-08-29, 01:46:00,VALID,916.988,VALID,0,VALID,100,VALID,-0.101885,VALID,18.6123,VALID,144,VALID,0.707919,
2008-08-29, 01:47:00,VALID,916.986,VALID,0,VALID,100,VALID,-0.0849042,VALID,18.632,VALID,138,VALID,0.19494,
2008-08-29, 01:48:00,VALID,916.982,VALID,0,VALID,100,VALID,-0.0339617,VALID,18.6253,VALID,145,VALID,0.412791,
2008-08-29, 01:49:00,VALID,916.981,VALID,0,VALID,100,VALID,-0.0679233,VALID,18.6156,VALID,162,VALID,0.234003,
2008-08-29, 01:50:00,VALID,916.985,VALID,0,VALID,100,VALID,-0.0679233,VALID,18.6188,VALID,160,VALID,0.207386,
2008-08-29, 01:51:00,VALID,916.992,VALID,0,VALID,100,VALID,-0.0679233,VALID,18.6056,VALID,146,VALID,0,
2008-08-29, 01:52:00,VALID,916.986,VALID,0,VALID,100,VALID,-0.0509425,VALID,18.6021,VALID,132,VALID,0,
2008-08-29, 01:53:00,VALID,917.004,VALID,0,VALID,100,VALID,-0.0679233,VALID,18.6023,VALID,135,VALID,0,
2008-08-29, 01:54:00,VALID,917.009,VALID,0,VALID,100,VALID,-0.0339617,VALID,18.5993,VALID,136,VALID,0,
2008-08-29, 01:55:00,VALID,917.007,VALID,0.2,VALID,100,VALID,-0.0339617,VALID,18.6021,VALID,128,VALID,0,
2008-08-29, 01:56:00,VALID,916.999,VALID,0,VALID,100,VALID,-0.0169808,VALID,18.5859,VALID,129,VALID,0.0498935,
2008-08-29, 01:57:00,VALID,917.011,VALID,0,VALID,100,VALID,-0.0169808,VALID,18.5762,VALID,129,VALID,0.000585938,
2008-08-29, 01:58:00,VALID,917.011,VALID,0,VALID,100,VALID,-0.101885,VALID,18.5634,VALID,124,VALID,0.000571646,
2008-08-29, 01:59:00,VALID,917.014,VALID,0,VALID,100,VALID,-0.101885,VALID,18.5539,VALID,116,VALID,0,
2008-08-29, 02:00:00,VALID,917.014,VALID,0,VALID,100,VALID,-0.0849042,VALID,18.5574,VALID,99,VALID,0,
2008-08-29, 02:01:00,VALID,917.02,VALID,0,VALID,100,VALID,-0.0679233,VALID,18.5342,VALID,112,VALID,0.00106534,
2008-08-29, 02:02:00,VALID,917.025,VALID,0,VALID,100,VALID,-0.101885,VALID,18.5315,VALID,119,VALID,0.059593,
2008-08-29, 02:03:00,VALID,917.024,VALID,0,VALID,100,VALID,-0.0849042,VALID,18.5312,VALID,123,VALID,0.00260417,
2008-08-29, 02:04:00,VALID,917.031,VALID,0,VALID,100,VALID,-0.0849042,VALID,18.5308,VALID,131,VALID,0.505335,
2008-08-29, 02:05:00,VALID,917.045,VALID,0,VALID,100,VALID,-0.0509425,VALID,18.534,VALID,128,VALID,0.418857,
2008-08-29, 02:06:00,VALID,917.046,VALID,0,VALID,100,VALID,-0.101885,VALID,18.5477,VALID,125,VALID,0,
2008-08-29, 02:07:00,VALID,917.043,VALID,0,VALID,100,VALID,-0.0849042,VALID,18.5412,VALID,123,VALID,0,
2008-08-29, 02:08:00,VALID,917.051,VALID,0,VALID,100,VALID,-0.0509425,VALID,18.5347,VALID,123,VALID,0,
2008-08-29, 02:09:00,VALID,917.042,VALID,0,VALID,100,VALID,-0.0679233,VALID,18.5342,VALID,120,VALID,0,
2008-08-29, 02:10:00,VALID,917.045,VALID,0,VALID,100,VALID,-0.0339617,VALID,18.5407,VALID,119,VALID,0,
2008-08-29, 02:11:00,VALID,917.04,VALID,0,VALID,100,VALID,-0.0509425,VALID,18.5405,VALID,119,VALID,0,
2008-08-29, 02:12:00,VALID,917.046,VALID,0,VALID,100,VALID,-0.0509425,VALID,18.5305,VALID,119,VALID,0,
2008-08-29, 02:13:00,VALID,917.044,VALID,0,VALID,100,VALID,-0.0509425,VALID,18.5243,VALID,119,VALID,0,
2008-08-29, 02:14:00,VALID,917.042,VALID,0,VALID,100,VALID,-0.101885,VALID,18.5176,VALID,119,VALID,0,
2008-08-29, 02:15:00,VALID,917.047,VALID,0,VALID,100,VALID,-0.0509425,VALID,18.5183,VALID,112,VALID,0,
2008-08-29, 02:16:00,VALID,917.052,VALID,0,VALID,100,VALID,-0.0849042,VALID,18.4983,VALID,110,VALID,0,
2008-08-29, 02:17:00,VALID,917.036,VALID,0,VALID,100,VALID,-0.0849042,VALID,18.4923,VALID,110,VALID,0,
2008-08-29, 02:18:00,VALID,917.034,VALID,0,VALID,100,VALID,-0.0849042,VALID,18.4925,VALID,110,VALID,0,
2008-08-29, 02:19:00,VALID,917.024,VALID,0,VALID,100,VALID,-0.0849042,VALID,18.499,VALID,110,VALID,0,
2008-08-29, 02:20:00,VALID,917.009,VALID,0.2,VALID,100,VALID,-0.0679233,VALID,18.4979,VALID,110,VALID,0,
2008-08-29, 02:21:00,VALID,917.002,VALID,0,VALID,100,VALID,0,VALID,18.5108,VALID,110,VALID,0,
2008-08-29, 02:22:00,VALID,916.982,VALID,0,VALID,100,VALID,0.0339617,VALID,18.4911,VALID,110,VALID,0,
2008-08-29, 02:23:00,VALID,916.97,VALID,0,VALID,100,VALID,0.0339617,VALID,18.4807,VALID,110,VALID,0,
2008-08-29, 02:24:00,VALID,916.957,VALID,0,VALID,100,VALID,0.0339617,VALID,18.4707,VALID,110,VALID,0,
2008-08-29, 02:25:00,VALID,916.96,VALID,0,VALID,100,VALID,0,VALID,18.4643,VALID,113,VALID,0,
2008-08-29, 02:26:00,VALID,916.934,VALID,0,VALID,100,VALID,0.0509425,VALID,18.4779,VALID,120,VALID,0,
2008-08-29, 02:27:00,VALID,916.923,VALID,0,VALID,100,VALID,0.0509425,VALID,18.4777,VALID,123,VALID,0,
2008-08-29, 02:28:00,VALID,916.933,VALID,0,VALID,100,VALID,0.0169808,VALID,18.4944,VALID,123,VALID,0,
2008-08-29, 02:29:00,VALID,916.915,VALID,0,VALID,100,VALID,0.0339617,VALID,18.4972,VALID,126,VALID,0,
2008-08-29, 02:30:00,VALID,916.914,VALID,0,VALID,100,VALID,0.0679233,VALID,18.4707,VALID,128,VALID,0,
2008-08-29, 02:31:00,VALID,916.917,VALID,0,VALID,100,VALID,0.0169808,VALID,18.4707,VALID,128,VALID,0,
2008-08-29, 02:32:00,VALID,916.915,VALID,0,VALID,100,VALID,-0.0169808,VALID,18.4615,VALID,125,VALID,0,
2008-08-29, 02:33:00,VALID,916.911,VALID,0,VALID,100,VALID,0,VALID,18.4652,VALID,126,VALID,0,
2008-08-29, 02:34:00,VALID,916.893,VALID,0,VALID,100,VALID,0,VALID,18.4587,VALID,127,VALID,0,
2008-08-29, 02:35:00,VALID,916.884,VALID,0,VALID,100,VALID,-0.0339617,VALID,18.4684,VALID,130,VALID,0,
2008-08-29, 02:36:00,VALID,916.873,VALID,0,VALID,100,VALID,-0.0679233,VALID,18.4728,VALID,138,VALID,0.184375,
2008-08-29, 02:37:00,VALID,916.861,VALID,0,VALID,100,VALID,-0.101885,VALID,18.4566,VALID,145,VALID,0.787388,
2008-08-29, 02:38:00,VALID,916.855,VALID,0,VALID,100,VALID,-0.0679233,VALID,18.4365,VALID,140,VALID,0.00558036,
2008-08-29, 02:39:00,VALID,916.831,VALID,0.2,VALID,100,VALID,-0.0679233,VALID,18.4205,VALID,146,VALID,0.295139,
2008-08-29, 02:40:00,VALID,916.828,VALID,0,VALID,100,VALID,-0.0509425,VALID,18.414,VALID,149,VALID,0.896802,
2008-08-29, 02:41:00,VALID,916.819,VALID,0,VALID,100,VALID,-0.0679233,VALID,18.3973,VALID,148,VALID,0,
2008-08-29, 02:42:00,VALID,916.815,VALID,0,VALID,100,VALID,-0.0339617,VALID,18.4043,VALID,146,VALID,0.296113,
2008-08-29, 02:43:00,VALID,916.824,VALID,0,VALID,100,VALID,-0.0169808,VALID,18.3941,VALID,149,VALID,0,
2008-08-29, 02:44:00,VALID,916.829,VALID,0,VALID,100,VALID,-0.0509425,VALID,18.3913,VALID,148,VALID,0,
2008-08-29, 02:45:00,VALID,916.824,VALID,0,VALID,100,VALID,-0.0509425,VALID,18.3913,VALID,157,VALID,0,
2008-08-29, 02:46:00,VALID,916.828,VALID,0,VALID,100,VALID,-0.0509425,VALID,18.3811,VALID,145,VALID,0.146577,
2008-08-29, 02:47:00,VALID,916.811,VALID,0,VALID,100,VALID,-0.0169808,VALID,18.3714,VALID,140,VALID,0,
2008-08-29, 02:48:00,VALID,916.806,VALID,0,VALID,100,VALID,-0.0679233,VALID,18.3679,VALID,135,VALID,0.186523,
2008-08-29, 02:49:00,VALID,916.777,VALID,0,VALID,100,VALID,-0.101885,VALID,18.3718,VALID,136,VALID,0.161754,
2008-08-29, 02:50:00,VALID,916.764,VALID,0.2,VALID,100,VALID,-0.0169808,VALID,18.3684,VALID,136,VALID,0.152043,
2008-08-29, 02:51:00,VALID,916.744,VALID,0,VALID,100,VALID,-0.0339617,VALID,18.3614,VALID,136,VALID,0.0132813,
2008-08-29, 02:52:00,VALID,916.734,VALID,0,VALID,100,VALID,-0.0169808,VALID,18.3552,VALID,136,VALID,0,
2008-08-29, 02:53:00,VALID,916.716,VALID,0,VALID,100,VALID,-0.0509425,VALID,18.3649,VALID,148,VALID,0,
2008-08-29, 02:54:00,VALID,916.698,VALID,0,VALID,100,VALID,0,VALID,18.3679,VALID,147,VALID,0,
2008-08-29, 02:55:00,VALID,916.69,VALID,0,VALID,100,VALID,-0.0509425,VALID,18.3751,VALID,141,VALID,0,
2008-08-29, 02:56:00,VALID,916.678,VALID,0,VALID,100,VALID,-0.0509425,VALID,18.3721,VALID,138,VALID,0.151105,
2008-08-29, 02:57:00,VALID,916.665,VALID,0,VALID,100,VALID,0,VALID,18.3684,VALID,136,VALID,0.696766,
2008-08-29, 02:58:00,VALID,916.658,VALID,0,VALID,100,VALID,-0.0509425,VALID,18.3781,VALID,135,VALID,0.461648,
2008-08-29, 02:59:00,VALID,916.636,VALID,0,VALID,100,VALID,-0.0339617,VALID,18.3746,VALID,134,VALID,0.594599,
2008-08-29, 03:00:00,VALID,916.623,VALID,0,VALID,100,VALID,-0.0679233,VALID,18.3813,VALID,136,VALID,0.480196,
2008-08-29, 03:01:00,VALID,916.614,VALID,0,VALID,100,VALID,-0.0679233,VALID,18.3911,VALID,148,VALID,0.526867,
2008-08-29, 03:02:00,VALID,916.594,VALID,0,VALID,100,VALID,-0.0339617,VALID,18.3973,VALID,154,VALID,0.731831,
2008-08-29, 03:03:00,VALID,916.586,VALID,0,VALID,100,VALID,-0.0509425,VALID,18.4006,VALID,156,VALID,0.552591,
2008-08-29, 03:04:00,VALID,916.565,VALID,0,VALID,100,VALID,-0.0339617,VALID,18.4043,VALID,162,VALID,0.418899,
2008-08-29, 03:05:00,VALID,916.556,VALID,0.2,VALID,100,VALID,-0.0679233,VALID,18.4105,VALID,162,VALID,0.0260417,
2008-08-29, 03:06:00,VALID,916.548,VALID,0,VALID,100,VALID,-0.101885,VALID,18.3976,VALID,162,VALID,0,
2008-08-29, 03:07:00,VALID,916.542,VALID,0,VALID,100,VALID,-0.0509425,VALID,18.4112,VALID,153,VALID,0,
2008-08-29, 03:08:00,VALID,916.548,VALID,0,VALID,100,VALID,-0.0339617,VALID,18.3943,VALID,160,VALID,0,
2008-08-29, 03:09:00,VALID,916.541,VALID,0,VALID,100,VALID,-0.0509425,VALID,18.3716,VALID,130,VALID,0.829427,
2008-08-29, 03:10:00,VALID,916.553,VALID,0,VALID,100,VALID,-0.0679233,VALID,18.3554,VALID,127,VALID,0.193496,
2008-08-29, 03:11:00,VALID,916.547,VALID,0,VALID,100,VALID,-0.0679233,VALID,18.3422,VALID,114,VALID,0.232515,
2008-08-29, 03:12:00,VALID,916.548,VALID,0,VALID,100,VALID,-0.0679233,VALID,18.3327,VALID,125,VALID,0,
2008-08-29, 03:13:00,VALID,916.542,VALID,0,VALID,100,VALID,-0.101885,VALID,18.3197,VALID,140,VALID,0.000545058,
2008-08-29, 03:14:00,VALID,916.537,VALID,0,VALID,100,VALID,-0.0339617,VALID,18.32,VALID,137,VALID,0.000585938,
2008-08-29, 03:15:00,VALID,916.534,VALID,0,VALID,100,VALID,-0.0679233,VALID,18.2966,VALID,132,VALID,0,
2008-08-29, 03:16:00,VALID,916.526,VALID,0,VALID,100,VALID,-0.0849042,VALID,18.2968,VALID,139,VALID,0,
2008-08-29, 03:17:00,VALID,916.524,VALID,0,VALID,100,VALID,-0.0509425,VALID,18.2938,VALID,146,VALID,0,
2008-08-29, 03:18:00,VALID,916.527,VALID,0,VALID,100,VALID,-0.0169808,VALID,18.2938,VALID,149,VALID,0,
2008-08-29, 03:19:00,VALID,916.532,VALID,0,VALID,100,VALID,-0.0169808,VALID,18.2968,VALID,137,VALID,0,
2008-08-29, 03:20:00,VALID,916.526,VALID,0,VALID,100,VALID,-0.0169808,VALID,18.2935,VALID,137,VALID,0,
2008-08-29, 03:21:00,VALID,916.516,VALID,0,VALID,100,VALID,-0.0679233,VALID,18.2808,VALID,136,VALID,0,
2008-08-29, 03:22:00,VALID,916.524,VALID,0,VALID,100,VALID,-0.0339617,VALID,18.2676,VALID,148,VALID,0,
2008-08-29, 03:23:00,VALID,916.523,VALID,0,VALID,100,VALID,-0.0509425,VALID,18.2646,VALID,144,VALID,0,
2008-08-29, 03:24:00,VALID,916.531,VALID,0,VALID,100,VALID,0,VALID,18.2544,VALID,144,VALID,0,
2008-08-29, 03:25:00,VALID,916.526,VALID,0,VALID,100,VALID,-0.0339617,VALID,18.2611,VALID,144,VALID,0,
2008-08-29, 03:26:00,VALID,916.533,VALID,0,VALID,100,VALID,-0.0169808,VALID,18.2678,VALID,144,VALID,0,
2008-08-29, 03:27:00,VALID,916.524,VALID,0,VALID,100,VALID,-0.0169808,VALID,18.2581,VALID,127,VALID,0,
2008-08-29, 03:28:00,VALID,916.514,VALID,0,VALID,100,VALID,0,VALID,18.2414,VALID,120,VALID,0,
2008-08-29, 03:29:00,VALID,916.51,VALID,0,VALID,100,VALID,0,VALID,18.2317,VALID,120,VALID,0,
2008-08-29, 03:30:00,VALID,916.485,VALID,0,VALID,100,VALID,0,VALID,18.2254,VALID,116,VALID,0,
2008-08-29, 03:31:00,VALID,916.473,VALID,0,VALID,100,VALID,-0.0679233,VALID,18.2155,VALID,110,VALID,0,
2008-08-29, 03:32:00,VALID,916.466,VALID,0,VALID,100,VALID,-0.0679233,VALID,18.219,VALID,105,VALID,0,
2008-08-29, 03:33:00,VALID,916.442,VALID,0,VALID,100,VALID,-0.0679233,VALID,18.2222,VALID,108,VALID,0,
2008-08-29, 03:34:00,VALID,916.414,VALID,0,VALID,100,VALID,-0.0339617,VALID,18.2254,VALID,138,VALID,0,
2008-08-29, 03:35:00,VALID,916.39,VALID,0,VALID,100,VALID,0,VALID,18.2282,VALID,133,VALID,0,
2008-08-29, 03:36:00,VALID,916.385,VALID,0,VALID,100,VALID,-0.0339617,VALID,18.2347,VALID,127,VALID,0,
2008-08-29, 03:37:00,VALID,916.375,VALID,0,VALID,100,VALID,-0.0169808,VALID,18.2477,VALID,127,VALID,0,
2008-08-29, 03:38:00,VALID,916.374,VALID,0,VALID,100,VALID,0,VALID,18.2414,VALID,127,VALID,0,
2008-08-29, 03:39:00,VALID,916.369,VALID,0,VALID,100,VALID,0,VALID,18.2442,VALID,128,VALID,0,
2008-08-29, 03:40:00,VALID,916.358,VALID,0,VALID,100,VALID,-0.0169808,VALID,18.2444,VALID,129,VALID,0,
2008-08-29, 03:41:00,VALID,916.365,VALID,0.2,VALID,100,VALID,-0.0339617,VALID,18.2609,VALID,129,VALID,0,
2008-08-29, 03:42:00,VALID,916.342,VALID,0,VALID,100,VALID,-0.0169808,VALID,18.2542,VALID,129,VALID,0,
2008-08-29, 03:43:00,VALID,916.331,VALID,0,VALID,100,VALID,-0.0509425,VALID,18.2544,VALID,129,VALID,0,
2008-08-29, 03:44:00,VALID,916.322,VALID,0,VALID,100,VALID,-0.0169808,VALID,18.2449,VALID,129,VALID,0,